Simultaneous Nadir Overpasses (SNOs) Predictions

Prediction of SNOs between TERRA and METOP-C Satellite Orbit:

Table of predicted SNOs for the next 14.0 days since TLE Epoch: 7/13/2019
Index Date (TERRA) Time (TERRA) Lat,Lon (TERRA) SZA (TERRA ) Date (METOP-C) Time (METOP-C) Lat,Lon (METOP-C) SZA (METOP-C ) Distance(km) Time Diff (sec)
1 07/15/2019 16:15:30 81.30, -16.64 62.56 07/15/2019 16:14:23 81.30, -16.57 62.53 1.34 67
2 07/15/2019 17:04:57 -81.30, 150.96 117.45 07/15/2019 17:05:03 -81.30, 150.96 117.44 0.15 6
3 07/18/2019 11:49:45 81.29, 49.58 62.99 07/18/2019 11:48:47 81.29, 49.39 62.94 3.18 58
4 07/18/2019 12:39:11 -81.31,-142.42 116.96 07/18/2019 12:39:25 -81.31,-142.31 116.94 1.90 14
5 07/21/2019 07:23:58 81.30, 116.20 63.52 07/21/2019 07:23:08 81.30, 116.13 63.49 1.20 50
6 07/21/2019 08:13:25 -81.30, -76.15 116.47 07/21/2019 08:13:47 -81.31, -75.97 116.44 3.05 22
7 07/24/2019 02:58:13 81.29,-177.54 64.05 07/24/2019 02:57:31 81.30,-177.52 64.04 0.72 42
8 07/24/2019 03:47:39 -81.32, -9.50 115.89 07/24/2019 03:48:10 -81.31, -9.64 115.89 2.54 31
9 07/26/2019 22:32:27 81.30,-110.89 64.69 07/26/2019 22:31:53 81.30,-110.77 64.68 1.98 34




NCC Satellite Simultaneous Nadir Overpasses (SNOs) Prediction Service
